| time (UTC) | temp F | wind direction | speed MPH | gust MPH | rain 1hr in | rain 24hr in | rain mn in | humidity % | barometer mb |
| 20260906205531 | 85 | 153 | 7.0 | 11.0 | 0.00 | 0.00 | 0.00 | 45 | 1018.2 |
| 20260906205027 | 86 | 173 | 11.0 | 15.0 | 0.00 | 0.00 | 0.00 | 45 | 1018.6 |
| 20260906204526 | 85 | 161 | 12.0 | 14.0 | 0.00 | 0.00 | 0.00 | 45 | 1018.7 |
| 20260906204021 | 85 | 181 | 13.0 | 17.0 | 0.00 | 0.00 | 0.00 | 46 | 1018.9 |
| 20260906203516 | 85 | 168 | 8.0 | 14.0 | 0.00 | 0.00 | 0.00 | 47 | 1018.7 |
| 20260906203015 | 85 | 138 | 7.0 | 15.0 | 0.00 | 0.00 | 0.00 | 44 | 1019.0 |
| 20260906202513 | 84 | 190 | 8.0 | 11.0 | 0.00 | 0.00 | 0.00 | 47 | 1019.0 |
| 20260906202008 | 85 | 198 | 9.0 | 14.0 | 0.00 | 0.00 | 0.00 | 43 | 1018.8 |
| 20260906201507 | 84 | 166 | 8.0 | 9.0 | 0.00 | 0.00 | 0.00 | 46 | 1018.8 |
| 20260906201007 | 84 | 100 | 12.0 | 16.0 | 0.00 | 0.00 | 0.00 | 46 | 1018.7 |
| 20260906200503 | 84 | 167 | 9.0 | 13.0 | 0.00 | 0.00 | 0.00 | 46 | 1018.9 |
| 20260906195958 | 83 | 138 | 8.0 | 10.0 | 0.00 | 0.00 | 0.00 | 49 | 1018.8 |
| 20260906195454 | 83 | 166 | 13.0 | 15.0 | 0.00 | 0.00 | 0.00 | 48 | 1018.7 |
| 20260906194950 | 83 | 133 | 9.0 | 11.0 | 0.00 | 0.00 | 0.00 | 49 | 1019.0 |
| 20260906194446 | 83 | 121 | 6.0 | 9.0 | 0.00 | 0.00 | 0.00 | 47 | 1019.0 |
| 20260906193941 | 83 | 150 | 11.0 | 14.0 | 0.00 | 0.00 | 0.00 | 49 | 1018.9 |
| 20260906193436 | 82 | 157 | 7.0 | 11.0 | 0.00 | 0.00 | 0.00 | 51 | 1019.4 |
| 20260906192931 | 83 | 163 | 11.0 | 14.0 | 0.00 | 0.00 | 0.00 | 51 | 1019.5 |
| 20260906192431 | 81 | 149 | 7.0 | 15.0 | 0.00 | 0.00 | 0.00 | 52 | 1019.3 |
| 20260906191931 | 81 | 129 | 12.0 | 14.0 | 0.00 | 0.00 | 0.00 | 53 | 1019.7 |
| 20260906191426 | 81 | 152 | 6.0 | 11.0 | 0.00 | 0.00 | 0.00 | 53 | 1019.6 |
| 20260906190925 | 83 | 172 | 11.0 | 13.0 | 0.00 | 0.00 | 0.00 | 52 | 1019.9 |
| 20260906190424 | 83 | 178 | 10.0 | 11.0 | 0.00 | 0.00 | 0.00 | 47 | 1019.9 |
| 20260906185919 | 82 | 152 | 9.0 | 11.0 | 0.00 | 0.00 | 0.00 | 51 | 1020.0 |
| 20260906185418 | 82 | 165 | 8.0 | 9.0 | 0.00 | 0.00 | 0.00 | 51 | 1020.2 |
| 20260906184917 | 81 | 143 | 8.0 | 13.0 | 0.00 | 0.00 | 0.00 | 52 | 1020.0 |
| 20260906184413 | 81 | 159 | 7.0 | 9.0 | 0.00 | 0.00 | 0.00 | 54 | 1020.3 |
| 20260906183908 | 81 | 174 | 9.0 | 16.0 | 0.00 | 0.00 | 0.00 | 52 | 1020.0 |
| 20260906183404 | 80 | 164 | 8.0 | 11.0 | 0.00 | 0.00 | 0.00 | 54 | 1020.1 |
| 20260906182859 | 80 | 137 | 12.0 | 15.0 | 0.00 | 0.00 | 0.00 | 53 | 1020.1 |
| 20260906182354 | 81 | 151 | 11.0 | 13.0 | 0.00 | 0.00 | 0.00 | 52 | 1020.1 |
| 20260906181850 | 81 | 177 | 9.0 | 11.0 | 0.00 | 0.00 | 0.00 | 54 | 1020.7 |
| 20260906181346 | 80 | 165 | 10.0 | 11.0 | 0.00 | 0.00 | 0.00 | 54 | 1020.4 |
| 20260906180841 | 80 | 171 | 5.0 | 9.0 | 0.00 | 0.00 | 0.00 | 54 | 1020.6 |
| 20260906180336 | 80 | 168 | 7.0 | 10.0 | 0.00 | 0.00 | 0.00 | 54 | 1020.9 |
| 20260906175833 | 80 | 154 | 3.0 | 10.0 | 0.00 | 0.00 | 0.00 | 55 | 1020.8 |
| 20260906175329 | 78 | 139 | 8.0 | 16.0 | 0.00 | 0.00 | 0.00 | 56 | 1021.0 |
| 20260906174828 | 79 | 200 | 5.0 | 9.0 | 0.00 | 0.00 | 0.00 | 56 | 1021.2 |
| 20260906174327 | 78 | 165 | 6.0 | 8.0 | 0.00 | 0.00 | 0.00 | 57 | 1021.2 |
| 20260906173822 | 78 | 147 | 17.0 | 21.0 | 0.00 | 0.00 | 0.00 | 55 | 1021.2 |
| 20260906173318 | 78 | 207 | 6.0 | 10.0 | 0.00 | 0.00 | 0.00 | 59 | 1021.4 |
| 20260906172817 | 77 | 192 | 5.0 | 9.0 | 0.00 | 0.00 | 0.00 | 60 | 1021.2 |
| 20260906172314 | 77 | 147 | 6.0 | 18.0 | 0.00 | 0.00 | 0.00 | 61 | 1021.3 |
| 20260906171814 | 77 | 183 | 12.0 | 17.0 | 0.00 | 0.00 | 0.00 | 58 | 1021.4 |
| 20260906171308 | 76 | 166 | 8.0 | 16.0 | 0.00 | 0.00 | 0.00 | 62 | 1021.3 |
| 20260906170804 | 76 | 168 | 8.0 | 15.0 | 0.00 | 0.00 | 0.00 | 61 | 1021.6 |
| 20260906170300 | 75 | 180 | 15.0 | 21.0 | 0.00 | 0.00 | 0.00 | 63 | 1021.4 |
| 20260906165756 | 74 | 172 | 11.0 | 16.0 | 0.00 | 0.00 | 0.00 | 67 | 1021.6 |
| 20260906165255 | 74 | 216 | 9.0 | 10.0 | 0.00 | 0.00 | 0.00 | 66 | 1021.4 |
| 20260906164750 | 73 | 194 | 13.0 | 16.0 | 0.00 | 0.00 | 0.00 | 66 | 1021.6 |
| 20260906164250 | 73 | 146 | 20.0 | 22.0 | 0.00 | 0.00 | 0.00 | 66 | 1021.6 |
| 20260906163746 | 72 | 173 | 7.0 | 9.0 | 0.00 | 0.00 | 0.00 | 69 | 1021.9 |
| 20260906163242 | 72 | 170 | 7.0 | 17.0 | 0.00 | 0.00 | 0.00 | 67 | 1021.9 |
| 20260906162739 | 72 | 216 | 14.0 | 17.0 | 0.00 | 0.00 | 0.00 | 68 | 1021.7 |
| 20260906162233 | 73 | 215 | 14.0 | 18.0 | 0.00 | 0.00 | 0.00 | 65 | 1022.0 |
| 20260906161733 | 72 | 208 | 12.0 | 16.0 | 0.00 | 0.00 | 0.00 | 69 | 1021.7 |
| 20260906161232 | 72 | 172 | 15.0 | 24.0 | 0.00 | 0.00 | 0.00 | 67 | 1021.9 |
| 20260906160732 | 71 | 186 | 11.0 | 22.0 | 0.00 | 0.00 | 0.00 | 70 | 1021.9 |
| 20260906160226 | 71 | 223 | 17.0 | 27.0 | 0.00 | 0.00 | 0.00 | 68 | 1021.9 |
| 20260906155723 | 71 | 222 | 13.0 | 25.0 | 0.00 | 0.00 | 0.00 | 68 | 1022.1 |
| 20260906155218 | 70 | 195 | 19.0 | 26.0 | 0.00 | 0.00 | 0.00 | 68 | 1021.9 |
| 20260906154714 | 70 | 198 | 11.0 | 14.0 | 0.00 | 0.00 | 0.00 | 70 | 1021.9 |
| 20260906154209 | 71 | 149 | 16.0 | 21.0 | 0.00 | 0.00 | 0.00 | 68 | 1022.1 |
| 20260906153707 | 71 | 186 | 10.0 | 23.0 | 0.00 | 0.00 | 0.00 | 68 | 1022.1 |
| 20260906153202 | 71 | 174 | 18.0 | 20.0 | 0.00 | 0.00 | 0.00 | 67 | 1022.0 |
| 20260906152657 | 71 | 209 | 18.0 | 25.0 | 0.00 | 0.00 | 0.00 | 68 | 1021.9 |
| 20260906152151 | 70 | 202 | 12.0 | 23.0 | 0.00 | 0.00 | 0.00 | 68 | 1022.2 |
| 20260906151645 | 70 | 192 | 15.0 | 22.0 | 0.00 | 0.00 | 0.00 | 68 | 1022.1 |
| 20260906151141 | 69 | 203 | 9.0 | 25.0 | 0.00 | 0.00 | 0.00 | 68 | 1022.0 |
| 20260906150636 | 69 | 180 | 11.0 | 20.0 | 0.00 | 0.00 | 0.00 | 69 | 1021.9 |
| 20260906150132 | 69 | 208 | 13.0 | 26.0 | 0.00 | 0.00 | 0.00 | 69 | 1022.2 |
| 20260906145631 | 69 | 183 | 11.0 | 18.0 | 0.00 | 0.00 | 0.00 | 68 | 1022.0 |
| 20260906145125 | 68 | 184 | 9.0 | 13.0 | 0.00 | 0.00 | 0.00 | 69 | 1022.1 |
| 20260906144620 | 69 | 166 | 9.0 | 15.0 | 0.00 | 0.00 | 0.00 | 69 | 1022.0 |
| 20260906144115 | 68 | 192 | 10.0 | 25.0 | 0.00 | 0.00 | 0.00 | 70 | 1022.1 |
| 20260906143615 | 68 | 185 | 18.0 | 22.0 | 0.00 | 0.00 | 0.00 | 71 | 1022.0 |
| 20260906143112 | 66 | 186 | 15.0 | 18.0 | 0.00 | 0.00 | 0.00 | 72 | 1021.7 |
| 20260906142611 | 66 | 237 | 14.0 | 21.0 | 0.00 | 0.00 | 0.00 | 74 | 1022.1 |
| 20260906142106 | 65 | 209 | 13.0 | 16.0 | 0.00 | 0.00 | 0.00 | 75 | 1022.1 |
| 20260906141605 | 65 | 215 | 15.0 | 17.0 | 0.00 | 0.00 | 0.00 | 75 | 1022.2 |
| 20260906141101 | 64 | 214 | 14.0 | 16.0 | 0.00 | 0.00 | 0.00 | 75 | 1022.1 |
| 20260906140559 | 64 | 208 | 7.0 | 13.0 | 0.00 | 0.00 | 0.00 | 76 | 1021.7 |
| 20260906140054 | 64 | 221 | 8.0 | 18.0 | 0.00 | 0.00 | 0.00 | 77 | 1021.7 |
| 20260906135551 | 63 | 246 | 12.0 | 17.0 | 0.00 | 0.00 | 0.00 | 78 | 1021.7 |
| 20260906135047 | 62 | 226 | 13.0 | 16.0 | 0.00 | 0.00 | 0.00 | 79 | 1022.0 |
| 20260906134543 | 62 | 213 | 12.0 | 18.0 | 0.00 | 0.00 | 0.00 | 80 | 1022.1 |
| 20260906134038 | 61 | 210 | 7.0 | 13.0 | 0.00 | 0.00 | 0.00 | 82 | 1021.9 |
| 20260906133533 | 60 | 215 | 9.0 | 11.0 | 0.00 | 0.00 | 0.00 | 83 | 1021.7 |
| 20260906133028 | 60 | 216 | 8.0 | 11.0 | 0.00 | 0.00 | 0.00 | 85 | 1022.2 |
| 20260906132524 | 59 | 243 | 5.0 | 8.0 | 0.00 | 0.00 | 0.00 | 86 | 1022.1 |
| 20260906132019 | 59 | 228 | 3.0 | 6.0 | 0.00 | 0.00 | 0.00 | 87 | 1021.9 |
| 20260906131514 | 58 | 216 | 4.0 | 5.0 | 0.00 | 0.00 | 0.00 | 88 | 1021.7 |
| 20260906131010 | 57 | 222 | 4.0 | 5.0 | 0.00 | 0.00 | 0.00 | 89 | 1022.0 |
| 20260906130509 | 57 | 229 | 3.0 | 3.0 | 0.00 | 0.00 | 0.00 | 89 | 1021.9 |
| 20260906130004 | 57 | 218 | 4.0 | 5.0 | 0.00 | 0.00 | 0.00 | 89 | 1021.6 |
| 20260906125502 | 57 | 220 | 3.0 | 5.0 | 0.00 | 0.00 | 0.00 | 89 | 1021.5 |
| 20260906125001 | 57 | 214 | 3.0 | 3.0 | 0.00 | 0.00 | 0.00 | 89 | 1021.7 |
| 20260906124457 | 57 | 213 | 2.0 | 2.0 | 0.00 | 0.00 | 0.00 | 89 | 1021.7 |
| 20260906123951 | 57 | 202 | 2.0 | 3.0 | 0.00 | 0.00 | 0.00 | 89 | 1021.6 |
| 20260906123450 | 58 | 219 | 3.0 | 5.0 | 0.00 | 0.00 | 0.00 | 89 | 1021.5 |
| 20260906122944 | 58 | 240 | 5.0 | 6.0 | 0.00 | 0.00 | 0.00 | 89 | 1021.4 |
| 20260906122439 | 58 | 226 | 3.0 | 5.0 | 0.00 | 0.00 | 0.00 | 90 | 1021.4 |
| 20260906121937 | 58 | 223 | 5.0 | 7.0 | 0.00 | 0.00 | 0.00 | 90 | 1021.5 |
| 20260906121432 | 58 | 231 | 5.0 | 6.0 | 0.00 | 0.00 | 0.00 | 90 | 1021.4 |
| 20260906120929 | 58 | 221 | 3.0 | 5.0 | 0.00 | 0.00 | 0.00 | 90 | 1021.4 |
| 20260906120424 | 59 | 204 | 2.0 | 3.0 | 0.00 | 0.00 | 0.00 | 90 | 1021.3 |
| 20260906115920 | 59 | 235 | 5.0 | 6.0 | 0.00 | 0.00 | 0.00 | 90 | 1021.0 |
| 20260906115415 | 59 | 221 | 4.0 | 5.0 | 0.00 | 0.00 | 0.00 | 89 | 1021.2 |
| 20260906114915 | 59 | 200 | 3.0 | 3.0 | 0.00 | 0.00 | 0.00 | 90 | 1020.8 |
| 20260906114410 | 59 | 193 | 3.0 | 3.0 | 0.00 | 0.00 | 0.00 | 90 | 1021.3 |
| 20260906113905 | 59 | 203 | 1.0 | 2.0 | 0.00 | 0.00 | 0.00 | 89 | 1021.3 |
| 20260906113403 | 59 | 204 | 1.0 | 2.0 | 0.00 | 0.00 | 0.00 | 89 | 1021.0 |
| 20260906112859 | 59 | 200 | 3.0 | 3.0 | 0.00 | 0.00 | 0.00 | 90 | 1021.3 |
| 20260906112349 | 59 | 219 | 3.0 | 5.0 | 0.00 | 0.00 | 0.00 | 89 | 1021.5 |
| 20260906111843 | 59 | 201 | 3.0 | 3.0 | 0.00 | 0.00 | 0.00 | 89 | 1021.3 |
| 20260906111343 | 59 | 202 | 1.0 | 1.0 | 0.00 | 0.00 | 0.00 | 89 | 1021.2 |
| 20260906110839 | 59 | 204 | 1.0 | 2.0 | 0.00 | 0.00 | 0.00 | 89 | 1021.0 |
| 20260906110334 | 59 | 200 | 2.0 | 2.0 | 0.00 | 0.00 | 0.00 | 89 | 1021.3 |
| 20260906105833 | 59 | 206 | 2.0 | 2.0 | 0.00 | 0.00 | 0.00 | 88 | 1021.2 |
| 20260906105329 | 59 | 199 | 2.0 | 3.0 | 0.00 | 0.00 | 0.00 | 88 | 1021.2 |
| 20260906104819 | 59 | 207 | 5.0 | 6.0 | 0.00 | 0.00 | 0.00 | 87 | 1021.4 |
| 20260906104317 | 59 | 225 | 3.0 | 5.0 | 0.00 | 0.00 | 0.00 | 87 | 1021.3 |
| 20260906103816 | 59 | 192 | 0.0 | 0.0 | 0.00 | 0.00 | 0.00 | 87 | 1021.5 |
| 20260906103309 | 58 | 215 | 1.0 | 2.0 | 0.00 | 0.00 | 0.00 | 87 | 1021.2 |
| 20260906102805 | 58 | 192 | 0.0 | 0.0 | 0.00 | 0.00 | 0.00 | 87 | 1021.4 |
| 20260906102306 | 58 | 176 | 0.0 | 0.0 | 0.00 | 0.00 | 0.00 | 87 | 1021.4 |
| 20260906101759 | 58 | 182 | 0.0 | 0.0 | 0.00 | 0.00 | 0.00 | 87 | 1021.4 |
| 20260906101254 | 58 | 202 | 1.0 | 1.0 | 0.00 | 0.00 | 0.00 | 87 | 1021.4 |
| 20260906100750 | 59 | 187 | 0.0 | 0.0 | 0.00 | 0.00 | 0.00 | 86 | 1021.5 |
| 20260906100249 | 59 | 188 | 0.0 | 0.0 | 0.00 | 0.00 | 0.00 | 86 | 1021.2 |
| 20260906095744 | 59 | 173 | 0.0 | 0.0 | 0.00 | 0.00 | 0.00 | 85 | 1021.0 |
| 20260906095239 | 59 | 173 | 0.0 | 0.0 | 0.00 | 0.00 | 0.00 | 85 | 1021.3 |
| 20260906094739 | 59 | 107 | 3.0 | 5.0 | 0.00 | 0.00 | 0.00 | 85 | 1021.3 |
| 20260906094234 | 59 | 163 | 0.0 | 0.0 | 0.00 | 0.00 | 0.00 | 86 | 1020.9 |
| 20260906093730 | 59 | 158 | 0.0 | 0.0 | 0.00 | 0.00 | 0.00 | 86 | 1021.2 |
| 20260906093225 | 59 | 185 | 0.0 | 0.0 | 0.00 | 0.00 | 0.00 | 86 | 1021.0 |
| 20260906092721 | 59 | 193 | 0.0 | 0.0 | 0.00 | 0.00 | 0.00 | 86 | 1020.9 |
| 20260906092220 | 59 | 197 | 0.0 | 1.0 | 0.00 | 0.00 | 0.00 | 86 | 1020.8 |
| 20260906091717 | 59 | 197 | 3.0 | 5.0 | 0.00 | 0.00 | 0.00 | 86 | 1020.4 |
| 20260906091213 | 59 | 213 | 3.0 | 5.0 | 0.00 | 0.00 | 0.00 | 85 | 1020.8 |
| 20260906090709 | 59 | 197 | 2.0 | 2.0 | 0.00 | 0.00 | 0.00 | 86 | 1020.6 |
| 20260906090208 | 59 | 213 | 3.0 | 5.0 | 0.00 | 0.00 | 0.00 | 85 | 1020.7 |
| 20260906085707 | 59 | 212 | 1.0 | 2.0 | 0.00 | 0.00 | 0.00 | 84 | 1020.6 |
| 20260906085206 | 59 | 209 | 3.0 | 5.0 | 0.00 | 0.00 | 0.00 | 85 | 1020.8 |
| 20260906084701 | 59 | 247 | 4.0 | 5.0 | 0.00 | 0.00 | 0.00 | 85 | 1020.8 |
| 20260906084155 | 59 | 247 | 3.0 | 7.0 | 0.00 | 0.00 | 0.00 | 84 | 1021.0 |
| 20260906083649 | 58 | 239 | 2.0 | 5.0 | 0.00 | 0.00 | 0.00 | 87 | 1020.8 |
| 20260906083145 | 58 | 219 | 3.0 | 3.0 | 0.00 | 0.00 | 0.00 | 87 | 1021.0 |
| 20260906082640 | 58 | 206 | 2.0 | 2.0 | 0.00 | 0.00 | 0.00 | 86 | 1021.0 |
| 20260906082136 | 59 | 193 | 2.0 | 3.0 | 0.00 | 0.00 | 0.00 | 85 | 1020.8 |
| 20260906081631 | 58 | 275 | 3.0 | 5.0 | 0.00 | 0.00 | 0.00 | 86 | 1020.6 |
| 20260906081127 | 58 | 202 | 1.0 | 2.0 | 0.00 | 0.00 | 0.00 | 86 | 1021.2 |
| 20260906080623 | 59 | 232 | 2.0 | 3.0 | 0.00 | 0.00 | 0.00 | 85 | 1020.9 |
| 20260906080119 | 59 | 242 | 4.0 | 6.0 | 0.00 | 0.00 | 0.00 | 86 | 1021.0 |
| 20260906075618 | 58 | 258 | 3.0 | 6.0 | 0.00 | 0.00 | 0.00 | 86 | 1020.9 |
| 20260906075113 | 58 | 212 | 1.0 | 2.0 | 0.00 | 0.00 | 0.00 | 86 | 1021.3 |
| 20260906074609 | 58 | 187 | 0.0 | 0.0 | 0.00 | 0.00 | 0.00 | 86 | 1021.2 |
| 20260906074107 | 58 | 201 | 0.0 | 1.0 | 0.00 | 0.00 | 0.00 | 86 | 1021.4 |
| 20260906073602 | 58 | 214 | 1.0 | 2.0 | 0.00 | 0.00 | 0.00 | 87 | 1021.4 |
| 20260906073058 | 58 | 181 | 0.0 | 0.0 | 0.00 | 0.00 | 0.00 | 87 | 1021.4 |
| 20260906072552 | 58 | 175 | 0.0 | 0.0 | 0.00 | 0.00 | 0.00 | 87 | 1021.3 |
| 20260906072049 | 58 | 232 | 4.0 | 5.0 | 0.00 | 0.00 | 0.00 | 87 | 1020.9 |
| 20260906071545 | 58 | 302 | 4.0 | 5.0 | 0.00 | 0.00 | 0.00 | 86 | 1020.8 |
| 20260906071039 | 58 | 230 | 2.0 | 2.0 | 0.00 | 0.00 | 0.00 | 86 | 1021.0 |
| 20260906070536 | 58 | 225 | 1.0 | 3.0 | 0.00 | 0.00 | 0.00 | 86 | 1021.0 |
| 20260906070032 | 58 | 213 | 2.0 | 3.0 | 0.00 | 0.00 | 0.00 | 86 | 1021.0 |
| 20260906065531 | 58 | 192 | 0.0 | 2.0 | 0.00 | 0.00 | 0.00 | 86 | 1020.9 |
| 20260906065027 | 58 | 221 | 2.0 | 3.0 | 0.00 | 0.00 | 0.00 | 86 | 1020.6 |
| 20260906064522 | 59 | 278 | 3.0 | 3.0 | 0.00 | 0.00 | 0.00 | 86 | 1020.8 |
| 20260906064017 | 59 | 188 | 0.0 | 2.0 | 0.00 | 0.00 | 0.00 | 87 | 1020.8 |
| 20260906063512 | 58 | 258 | 2.0 | 2.0 | 0.00 | 0.00 | 0.00 | 87 | 1020.8 |
| 20260906063008 | 58 | 251 | 3.0 | 3.0 | 0.00 | 0.00 | 0.00 | 86 | 1020.6 |
| 20260906062503 | 59 | 280 | 4.0 | 5.0 | 0.00 | 0.00 | 0.00 | 86 | 1020.7 |
| 20260906061957 | 59 | 257 | 4.0 | 5.0 | 0.00 | 0.00 | 0.00 | 86 | 1020.8 |
| 20260906061453 | 59 | 287 | 4.0 | 5.0 | 0.00 | 0.00 | 0.00 | 86 | 1020.8 |
| 20260906060947 | 60 | 214 | 1.0 | 2.0 | 0.00 | 0.00 | 0.00 | 85 | 1020.8 |
| 20260906060444 | 60 | 182 | 0.0 | 0.0 | 0.00 | 0.00 | 0.00 | 85 | 1020.8 |
| 20260906055941 | 60 | 182 | 0.0 | 0.0 | 0.00 | 0.00 | 0.00 | 85 | 1020.8 |
| 20260906055436 | 61 | 182 | 1.0 | 1.0 | 0.00 | 0.00 | 0.00 | 84 | 1020.9 |
| 20260906054932 | 61 | 202 | 0.0 | 1.0 | 0.00 | 0.00 | 0.00 | 84 | 1020.8 |
| 20260906054426 | 62 | 193 | 0.0 | 0.0 | 0.00 | 0.00 | 0.00 | 83 | 1020.9 |
| 20260906053922 | 62 | 191 | 0.0 | 0.0 | 0.00 | 0.00 | 0.00 | 83 | 1020.7 |
| 20260906053418 | 62 | 188 | 0.0 | 1.0 | 0.00 | 0.00 | 0.00 | 83 | 1020.8 |
| 20260906052914 | 62 | 232 | 2.0 | 2.0 | 0.00 | 0.00 | 0.00 | 83 | 1020.7 |
| 20260906052410 | 62 | 207 | 1.0 | 2.0 | 0.00 | 0.00 | 0.00 | 82 | 1020.8 |
| 20260906051907 | 63 | 173 | 0.0 | 0.0 | 0.00 | 0.00 | 0.00 | 81 | 1020.4 |
| 20260906051406 | 63 | 172 | 0.0 | 2.0 | 0.00 | 0.00 | 0.00 | 81 | 1020.9 |
| 20260906050902 | 63 | 166 | 1.0 | 1.0 | 0.00 | 0.00 | 0.00 | 81 | 1020.8 |
| 20260906050357 | 64 | 156 | 3.0 | 3.0 | 0.00 | 0.00 | 0.00 | 80 | 1020.7 |
| 20260906045856 | 64 | 151 | 3.0 | 5.0 | 0.00 | 0.00 | 0.00 | 80 | 1020.6 |
| 20260906045355 | 64 | 150 | 4.0 | 5.0 | 0.00 | 0.00 | 0.00 | 79 | 1020.6 |
| 20260906044852 | 64 | 139 | 5.0 | 5.0 | 0.00 | 0.00 | 0.00 | 79 | 1020.4 |
| 20260906044352 | 65 | 153 | 3.0 | 5.0 | 0.00 | 0.00 | 0.00 | 79 | 1020.8 |
| 20260906043847 | 65 | 152 | 3.0 | 5.0 | 0.00 | 0.00 | 0.00 | 79 | 1020.7 |
| 20260906043343 | 65 | 140 | 4.0 | 8.0 | 0.00 | 0.00 | 0.00 | 78 | 1020.6 |
| 20260906042838 | 66 | 132 | 9.0 | 10.0 | 0.00 | 0.00 | 0.00 | 78 | 1020.8 |
| 20260906042337 | 66 | 143 | 9.0 | 15.0 | 0.00 | 0.00 | 0.00 | 78 | 1021.0 |
| 20260906041833 | 66 | 106 | 11.0 | 16.0 | 0.00 | 0.00 | 0.00 | 77 | 1021.2 |
| 20260906041328 | 66 | 108 | 10.0 | 16.0 | 0.00 | 0.00 | 0.00 | 76 | 1021.0 |
| 20260906040823 | 66 | 114 | 11.0 | 11.0 | 0.00 | 0.00 | 0.00 | 75 | 1021.0 |
| 20260906040318 | 67 | 139 | 10.0 | 13.0 | 0.00 | 0.00 | 0.00 | 75 | 1021.0 |
| 20260906035813 | 67 | 100 | 9.0 | 11.0 | 0.00 | 0.00 | 0.00 | 74 | 1020.9 |
| 20260906035309 | 67 | 109 | 9.0 | 14.0 | 0.00 | 0.00 | 0.00 | 74 | 1021.3 |
| 20260906034803 | 67 | 134 | 11.0 | 13.0 | 0.00 | 0.00 | 0.00 | 73 | 1021.0 |
| 20260906034258 | 68 | 132 | 9.0 | 11.0 | 0.00 | 0.00 | 0.00 | 72 | 1020.8 |
| 20260906033754 | 68 | 119 | 7.0 | 13.0 | 0.00 | 0.00 | 0.00 | 71 | 1020.8 |
| 20260906033253 | 68 | 117 | 6.0 | 9.0 | 0.00 | 0.00 | 0.00 | 70 | 1020.8 |
| 20260906032750 | 69 | 138 | 6.0 | 9.0 | 0.00 | 0.00 | 0.00 | 69 | 1020.9 |
| 20260906032250 | 69 | 153 | 9.0 | 14.0 | 0.00 | 0.00 | 0.00 | 68 | 1020.8 |
| 20260906031745 | 70 | 118 | 9.0 | 11.0 | 0.00 | 0.00 | 0.00 | 65 | 1020.7 |
| 20260906031241 | 70 | 128 | 9.0 | 10.0 | 0.00 | 0.00 | 0.00 | 63 | 1020.6 |
| 20260906030740 | 70 | 116 | 9.0 | 15.0 | 0.00 | 0.00 | 0.00 | 62 | 1020.7 |
| 20260906030235 | 71 | 140 | 10.0 | 14.0 | 0.00 | 0.00 | 0.00 | 61 | 1020.4 |
| 20260906025734 | 71 | 94 | 5.0 | 8.0 | 0.00 | 0.00 | 0.00 | 60 | 1020.8 |
| 20260906025229 | 71 | 123 | 8.0 | 11.0 | 0.00 | 0.00 | 0.00 | 60 | 1020.3 |
| 20260906024728 | 72 | 123 | 8.0 | 9.0 | 0.00 | 0.00 | 0.00 | 60 | 1020.1 |
| 20260906024227 | 73 | 112 | 7.0 | 10.0 | 0.00 | 0.00 | 0.00 | 59 | 1020.1 |
| 20260906023724 | 73 | 72 | 5.0 | 8.0 | 0.00 | 0.00 | 0.00 | 58 | 1019.9 |
| 20260906023219 | 72 | 122 | 7.0 | 11.0 | 0.00 | 0.00 | 0.00 | 58 | 1019.9 |
| 20260906022714 | 73 | 83 | 1.0 | 3.0 | 0.00 | 0.00 | 0.00 | 54 | 1019.7 |
| 20260906022209 | 74 | 145 | 4.0 | 6.0 | 0.00 | 0.00 | 0.00 | 53 | 1019.6 |
| 20260906021705 | 75 | 153 | 3.0 | 5.0 | 0.00 | 0.00 | 0.00 | 52 | 1019.1 |
| 20260906021204 | 74 | 128 | 7.0 | 8.0 | 0.00 | 0.00 | 0.00 | 50 | 1019.5 |
| 20260906020659 | 74 | 121 | 5.0 | 8.0 | 0.00 | 0.00 | 0.00 | 45 | 1019.3 |
| 20260906020154 | 75 | 46 | 3.0 | 6.0 | 0.00 | 0.00 | 0.00 | 44 | 1019.3 |
| 20260906015648 | 76 | 74 | 5.0 | 8.0 | 0.00 | 0.00 | 0.00 | 42 | 1018.9 |
| 20260906015146 | 76 | 62 | 5.0 | 7.0 | 0.00 | 0.00 | 0.00 | 43 | 1019.0 |
| 20260906014641 | 77 | 60 | 6.0 | 9.0 | 0.00 | 0.00 | 0.00 | 42 | 1019.0 |
| 20260906014137 | 77 | 42 | 3.0 | 5.0 | 0.00 | 0.00 | 0.00 | 41 | 1019.1 |
| 20260906013632 | 77 | 66 | 3.0 | 3.0 | 0.00 | 0.00 | 0.00 | 42 | 1019.1 |
| 20260906013127 | 77 | 55 | 0.0 | 1.0 | 0.00 | 0.00 | 0.00 | 40 | 1019.3 |
| 20260906012616 | 78 | 101 | 1.0 | 3.0 | 0.00 | 0.00 | 0.00 | 40 | 1019.0 |
| 20260906012117 | 79 | 124 | 0.0 | 0.0 | 0.00 | 0.00 | 0.00 | 39 | 1018.8 |
| 20260906011612 | 80 | 209 | 2.0 | 3.0 | 0.00 | 0.00 | 0.00 | 38 | 1018.8 |
| 20260906011107 | 82 | 90 | 4.0 | 6.0 | 0.00 | 0.00 | 0.00 | 36 | 1019.1 |
| 20260906010602 | 82 | 8 | 5.0 | 6.0 | 0.00 | 0.00 | 0.00 | 35 | 1018.9 |
| 20260906010058 | 82 | 10 | 5.0 | 6.0 | 0.00 | 0.00 | 0.00 | 35 | 1018.9 |
| 20260906005557 | 83 | 46 | 5.0 | 6.0 | 0.00 | 0.00 | 0.00 | 35 | 1018.7 |
| 20260906005057 | 84 | 31 | 4.0 | 5.0 | 0.00 | 0.00 | 0.00 | 34 | 1018.9 |
| 20260906004556 | 85 | 16 | 4.0 | 5.0 | 0.00 | 0.00 | 0.00 | 34 | 1018.9 |
| 20260906004051 | 85 | 331 | 5.0 | 6.0 | 0.00 | 0.00 | 0.00 | 33 | 1019.1 |
| 20260906003546 | 85 | 36 | 5.0 | 7.0 | 0.00 | 0.00 | 0.00 | 32 | 1019.0 |
| 20260906003042 | 85 | 13 | 6.0 | 7.0 | 0.00 | 0.00 | 0.00 | 31 | 1018.8 |
| 20260906002537 | 85 | 180 | 4.0 | 8.0 | 0.00 | 0.00 | 0.00 | 31 | 1018.8 |
| 20260906002031 | 85 | 29 | 5.0 | 7.0 | 0.00 | 0.00 | 0.00 | 32 | 1018.9 |
| 20260906001527 | 85 | 43 | 4.0 | 6.0 | 0.00 | 0.00 | 0.00 | 31 | 1018.7 |
| 20260906001021 | 85 | 252 | 4.0 | 6.0 | 0.00 | 0.00 | 0.00 | 31 | 1019.1 |
| 20260906000518 | 86 | 18 | 5.0 | 6.0 | 0.00 | 0.00 | 0.00 | 31 | 1019.0 |
| 20260906000018 | 85 | 39 | 7.0 | 8.0 | 0.00 | 0.00 | 0.00 | 31 | 1018.7 |
| 20260905235511 | 86 | 13 | 8.0 | 9.0 | 0.00 | 0.00 | 0.00 | 31 | 1018.8 |
| 20260905235006 | 86 | 338 | 5.0 | 8.0 | 0.00 | 0.00 | 0.00 | 30 | 1018.9 |
| 20260905234503 | 86 | 9 | 5.0 | 8.0 | 0.00 | 0.00 | 0.00 | 30 | 1019.1 |
| 20260905233956 | 87 | 20 | 9.0 | 9.0 | 0.00 | 0.00 | 0.00 | 29 | 1018.8 |
| 20260905233452 | 87 | 40 | 3.0 | 10.0 | 0.00 | 0.00 | 0.00 | 30 | 1018.9 |
| 20260905232950 | 87 | 39 | 7.0 | 10.0 | 0.00 | 0.00 | 0.00 | 29 | 1018.9 |
| 20260905232447 | 87 | 33 | 6.0 | 10.0 | 0.00 | 0.00 | 0.00 | 30 | 1018.8 |
| 20260905231942 | 87 | 37 | 7.0 | 14.0 | 0.00 | 0.00 | 0.00 | 29 | 1018.8 |
| 20260905231438 | 87 | 2 | 10.0 | 14.0 | 0.00 | 0.00 | 0.00 | 29 | 1018.7 |
| 20260905230934 | 87 | 349 | 9.0 | 11.0 | 0.00 | 0.00 | 0.00 | 29 | 1018.7 |
| 20260905230432 | 87 | 337 | 6.0 | 7.0 | 0.00 | 0.00 | 0.00 | 29 | 1018.4 |
| 20260905225931 | 87 | 352 | 7.0 | 13.0 | 0.00 | 0.00 | 0.00 | 29 | 1018.6 |
| 20260905225426 | 87 | 6 | 7.0 | 8.0 | 0.00 | 0.00 | 0.00 | 29 | 1018.2 |
| 20260905224921 | 87 | 88 | 7.0 | 11.0 | 0.00 | 0.00 | 0.00 | 29 | 1018.4 |
| 20260905224417 | 88 | 3 | 13.0 | 17.0 | 0.00 | 0.00 | 0.00 | 28 | 1018.6 |
| 20260905223916 | 87 | 178 | 0.0 | 3.0 | 0.00 | 0.00 | 0.00 | 28 | 1018.7 |
| 20260905223415 | 87 | 56 | 8.0 | 13.0 | 0.00 | 0.00 | 0.00 | 28 | 1018.6 |
| 20260905222915 | 88 | 5 | 6.0 | 10.0 | 0.00 | 0.00 | 0.00 | 29 | 1018.6 |
| 20260905222414 | 87 | 88 | 9.0 | 10.0 | 0.00 | 0.00 | 0.00 | 28 | 1018.4 |
| 20260905221910 | 87 | 64 | 5.0 | 6.0 | 0.00 | 0.00 | 0.00 | 29 | 1018.8 |
| 20260905221407 | 88 | 49 | 6.0 | 13.0 | 0.00 | 0.00 | 0.00 | 28 | 1018.7 |
| 20260905220902 | 87 | 59 | 6.0 | 10.0 | 0.00 | 0.00 | 0.00 | 28 | 1018.4 |
| 20260905220358 | 87 | 54 | 1.0 | 13.0 | 0.00 | 0.00 | 0.00 | 28 | 1018.7 |
| 20260905215857 | 87 | 59 | 9.0 | 11.0 | 0.00 | 0.00 | 0.00 | 27 | 1018.9 |
| 20260905215353 | 88 | 30 | 7.0 | 13.0 | 0.00 | 0.00 | 0.00 | 28 | 1018.9 |
| 20260905214849 | 88 | 44 | 4.0 | 8.0 | 0.00 | 0.00 | 0.00 | 28 | 1018.9 |
| 20260905214344 | 88 | 47 | 4.0 | 7.0 | 0.00 | 0.00 | 0.00 | 27 | 1019.1 |
| 20260905213839 | 87 | 34 | 10.0 | 16.0 | 0.00 | 0.00 | 0.00 | 27 | 1019.1 |
| 20260905213336 | 87 | 104 | 6.0 | 8.0 | 0.00 | 0.00 | 0.00 | 27 | 1019.3 |
| 20260905212836 | 87 | 60 | 9.0 | 11.0 | 0.00 | 0.00 | 0.00 | 27 | 1019.4 |
| 20260905212336 | 87 | 359 | 1.0 | 6.0 | 0.00 | 0.00 | 0.00 | 27 | 1019.5 |
| 20260905211830 | 87 | 123 | 0.0 | 16.0 | 0.00 | 0.00 | 0.00 | 28 | 1019.5 |
| 20260905211326 | 87 | 50 | 2.0 | 6.0 | 0.00 | 0.00 | 0.00 | 28 | 1019.5 |
| 20260905210822 | 87 | 62 | 4.0 | 9.0 | 0.00 | 0.00 | 0.00 | 27 | 1019.9 |
| 20260905210321 | 87 | 34 | 3.0 | 8.0 | 0.00 | 0.00 | 0.00 | 28 | 1019.9 |
| 20260905205821 | 87 | 75 | 6.0 | 9.0 | 0.00 | 0.00 | 0.00 | 27 | 1019.6 |